TimePDT,TemperatureF,Dew PointF,Humidity,Sea Level PressureIn,VisibilityMPH,Wind Direction,Wind SpeedMPH,Gust SpeedMPH,PrecipitationIn,Events,Conditions,WindDirDegrees,DateUTC
12:53 AM,37.9,21.0,51,29.83,10.0,Calm,Calm,-,N/A,,Overcast,0,2013-03-27 07:53:00
1:53 AM,30.9,19.0,61,29.86,10.0,South,8.1,-,N/A,,Clear,170,2013-03-27 08:53:00
2:53 AM,30.0,18.0,61,29.86,10.0,South,10.4,-,N/A,,Clear,180,2013-03-27 09:53:00
3:53 AM,28.9,19.0,67,29.87,10.0,South,4.6,-,N/A,,Overcast,180,2013-03-27 10:53:00
4:53 AM,28.0,19.0,69,29.88,10.0,South,5.8,-,N/A,,Scattered Clouds,170,2013-03-27 11:53:00
5:53 AM,27.0,18.0,69,29.91,10.0,South,10.4,-,N/A,,Clear,170,2013-03-27 12:53:00
6:53 AM,25.0,17.1,72,29.94,10.0,South,11.5,-,N/A,,Clear,170,2013-03-27 13:53:00
7:53 AM,30.9,19.9,64,29.94,10.0,South,6.9,-,N/A,,Clear,180,2013-03-27 14:53:00
8:53 AM,41.0,21.0,45,29.90,10.0,Calm,Calm,-,N/A,,Clear,0,2013-03-27 15:53:00
9:53 AM,46.9,21.0,36,29.88,10.0,Calm,Calm,-,N/A,,Clear,0,2013-03-27 16:53:00
10:53 AM,53.1,21.9,30,29.85,10.0,NE,6.9,-,N/A,,Clear,50,2013-03-27 17:53:00
11:53 AM,57.0,17.1,21,29.82,10.0,ESE,6.9,-,N/A,,Mostly Cloudy,120,2013-03-27 18:53:00
12:53 PM,57.9,15.1,19,29.83,10.0,South,13.8,19.6,N/A,,Overcast,170,2013-03-27 19:53:00
1:53 PM,62.1,15.1,16,29.82,10.0,SSW,10.4,20.7,N/A,,Clear,210,2013-03-27 20:53:00
2:53 PM,62.1,15.1,16,29.82,10.0,WSW,15.0,20.7,N/A,,Partly Cloudy,240,2013-03-27 21:53:00
3:53 PM,60.1,12.9,16,29.82,10.0,WSW,9.2,-,N/A,,Partly Cloudy,240,2013-03-27 22:53:00
4:53 PM,61.0,12.0,15,29.82,10.0,SSW,9.2,-,N/A,,Scattered Clouds,210,2013-03-27 23:53:00
5:53 PM,59.0,10.9,15,29.85,10.0,SSW,6.9,-,N/A,,Clear,200,2013-03-28 00:53:00
6:53 PM,50.0,15.1,25,29.90,10.0,SW,6.9,-,N/A,,Clear,220,2013-03-28 01:53:00
7:53 PM,44.1,16.0,32,29.91,10.0,SSE,8.1,-,N/A,,Clear,150,2013-03-28 02:53:00
8:53 PM,46.0,17.1,31,29.88,10.0,South,11.5,-,N/A,,Clear,190,2013-03-28 03:53:00
9:53 PM,46.9,21.0,36,29.88,10.0,South,9.2,23.0,N/A,,Clear,190,2013-03-28 04:53:00
10:53 PM,44.1,21.9,42,29.86,10.0,SSW,12.7,-,N/A,,Clear,210,2013-03-28 05:53:00
11:53 PM,42.1,21.9,45,29.86,10.0,SSW,11.5,-,N/A,,Clear,210,2013-03-28 06:53:00